Time,TemperatureF,DewpointF,PressureIn,WindDirection,WindDirectionDegrees,WindSpeedMPH,WindSpeedGustMPH,Humidity,HourlyPrecipIn,Conditions,Clouds,dailyrainin,SoftwareType,DateUTC
2013-06-07 00:01:00,55.4,55.4,29.83,West,271,0.0,0.0,100,0.00,,,0.00,Wunderground v.1.15,2013-06-07 04:01:00,
2013-06-07 00:02:00,55.4,55.4,29.83,West,271,0.0,0.0,100,0.00,,,0.00,Wunderground v.1.15,2013-06-07 04:02:00,
2013-06-07 00:03:00,55.4,55.4,29.83,West,271,0.0,0.0,100,0.00,,,0.00,Wunderground v.1.15,2013-06-07 04:03:00,
2013-06-07 00:08:00,55.6,55.6,29.83,West,271,0.0,0.0,100,0.00,,,0.00,Wunderground v.1.15,2013-06-07 04:08:00,
2013-06-07 00:14:00,55.6,55.6,29.83,West,271,0.0,0.0,100,0.00,,,0.00,Wunderground v.1.15,2013-06-07 04:14:00,
2013-06-07 00:17:00,55.6,55.6,29.83,West,271,0.0,0.0,100,0.00,,,0.00,Wunderground v.1.15,2013-06-07 04:17:00,
2013-06-07 00:22:00,55.7,55.7,29.83,West,271,0.0,0.0,100,0.00,,,0.00,Wunderground v.1.15,2013-06-07 04:22:00,
2013-06-07 00:27:00,55.7,55.7,29.83,West,271,0.0,0.0,100,0.00,,,0.00,Wunderground v.1.15,2013-06-07 04:27:00,
2013-06-07 00:32:00,55.7,55.7,29.82,West,271,0.0,2.0,100,0.00,,,0.00,Wunderground v.1.15,2013-06-07 04:32:00,
2013-06-07 00:38:00,55.7,55.7,29.82,West,271,0.0,2.0,100,0.00,,,0.00,Wunderground v.1.15,2013-06-07 04:38:00,
2013-06-07 00:44:00,55.7,55.7,29.82,West,271,0.0,0.0,100,0.00,,,0.00,Wunderground v.1.15,2013-06-07 04:44:00,
2013-06-07 00:49:00,55.6,55.6,29.82,West,271,0.0,0.0,100,0.00,,,0.00,Wunderground v.1.15,2013-06-07 04:49:00,
2013-06-07 00:54:00,55.6,55.6,29.82,West,271,0.0,0.0,100,0.00,,,0.00,Wunderground v.1.15,2013-06-07 04:54:00,
2013-06-07 01:00:00,55.4,55.4,29.82,West,271,0.0,0.0,100,0.00,,,0.00,Wunderground v.1.15,2013-06-07 05:00:00,
2013-06-07 01:06:00,55.4,55.4,29.82,West,271,0.0,2.0,100,0.00,,,0.00,Wunderground v.1.15,2013-06-07 05:06:00,
2013-06-07 01:11:00,55.3,55.3,29.82,West,271,0.0,0.0,100,0.00,,,0.00,Wunderground v.1.15,2013-06-07 05:11:00,
2013-06-07 01:17:00,55.3,55.3,29.82,West,271,0.0,0.0,100,0.00,,,0.00,Wunderground v.1.15,2013-06-07 05:17:00,
2013-06-07 01:24:00,55.3,55.3,29.82,West,271,0.0,0.0,100,0.00,,,0.00,Wunderground v.1.15,2013-06-07 05:24:00,
2013-06-07 01:29:00,55.3,55.3,29.82,West,271,0.0,0.0,100,0.00,,,0.00,Wunderground v.1.15,2013-06-07 05:29:00,
2013-06-07 01:35:00,55.3,55.3,29.82,West,271,0.0,0.0,100,0.00,,,0.00,Wunderground v.1.15,2013-06-07 05:35:00,
2013-06-07 01:40:00,55.1,55.1,29.82,West,271,0.0,0.0,100,0.00,,,0.00,Wunderground v.1.15,2013-06-07 05:40:00,
2013-06-07 01:46:00,55.1,55.1,29.82,West,271,0.0,0.0,100,0.00,,,0.00,Wunderground v.1.15,2013-06-07 05:46:00,
2013-06-07 01:51:00,55.0,55.0,29.82,West,271,0.0,0.0,100,0.00,,,0.00,Wunderground v.1.15,2013-06-07 05:51:00,
2013-06-07 01:56:00,55.0,55.0,29.82,West,271,0.0,0.0,100,0.00,,,0.00,Wunderground v.1.15,2013-06-07 05:56:00,
2013-06-07 02:02:00,55.0,55.0,29.82,West,271,0.0,2.0,100,0.00,,,0.00,Wunderground v.1.15,2013-06-07 06:02:00,
2013-06-07 02:07:00,54.8,54.8,29.82,West,271,0.0,2.0,100,0.00,,,0.00,Wunderground v.1.15,2013-06-07 06:07:00,
2013-06-07 02:14:00,54.7,54.7,29.82,West,271,0.0,0.0,100,0.00,,,0.00,Wunderground v.1.15,2013-06-07 06:14:00,
2013-06-07 02:19:00,54.7,54.7,29.82,West,271,0.0,1.0,100,0.00,,,0.00,Wunderground v.1.15,2013-06-07 06:19:00,
2013-06-07 02:24:00,54.7,54.7,29.82,West,271,0.0,0.0,100,0.00,,,0.00,Wunderground v.1.15,2013-06-07 06:24:00,
2013-06-07 02:30:00,54.7,54.7,29.82,West,271,0.0,0.0,100,0.00,,,0.00,Wunderground v.1.15,2013-06-07 06:30:00,
2013-06-07 02:35:00,54.5,54.5,29.82,West,271,0.0,0.0,100,0.00,,,0.00,Wunderground v.1.15,2013-06-07 06:35:00,
2013-06-07 02:41:00,54.5,54.5,29.82,West,271,0.0,0.0,100,0.00,,,0.00,Wunderground v.1.15,2013-06-07 06:41:00,
2013-06-07 02:46:00,54.4,54.4,29.82,West,271,0.0,0.0,100,0.00,,,0.00,Wunderground v.1.15,2013-06-07 06:46:00,
2013-06-07 02:52:00,54.4,54.4,29.82,West,271,0.0,0.0,100,0.00,,,0.00,Wunderground v.1.15,2013-06-07 06:52:00,
2013-06-07 02:59:00,54.2,54.2,29.82,West,271,0.0,0.0,100,0.00,,,0.00,Wunderground v.1.15,2013-06-07 06:59:00,
2013-06-07 03:04:00,54.2,54.2,29.82,West,271,0.0,2.0,100,0.00,,,0.00,Wunderground v.1.15,2013-06-07 07:04:00,
2013-06-07 03:09:00,54.2,54.2,29.82,West,271,0.0,2.0,100,0.00,,,0.00,Wunderground v.1.15,2013-06-07 07:09:00,
2013-06-07 03:15:00,54.4,54.4,29.82,West,271,0.0,0.0,100,0.00,,,0.00,Wunderground v.1.15,2013-06-07 07:15:00,
2013-06-07 03:21:00,54.4,54.4,29.82,West,271,0.0,0.0,100,0.00,,,0.00,Wunderground v.1.15,2013-06-07 07:21:00,
2013-06-07 03:26:00,54.5,54.5,29.82,West,271,0.0,0.0,100,0.00,,,0.00,Wunderground v.1.15,2013-06-07 07:26:00,
2013-06-07 03:32:00,54.4,54.4,29.82,West,271,0.0,0.0,100,0.00,,,0.00,Wunderground v.1.15,2013-06-07 07:32:00,
2013-06-07 03:39:00,54.4,54.4,29.82,West,271,0.0,0.0,100,0.00,,,0.00,Wunderground v.1.15,2013-06-07 07:39:00,
2013-06-07 03:44:00,54.2,54.2,29.82,West,271,0.0,0.0,100,0.00,,,0.00,Wunderground v.1.15,2013-06-07 07:44:00,
2013-06-07 03:49:00,54.1,54.1,29.82,West,271,0.0,0.0,100,0.00,,,0.00,Wunderground v.1.15,2013-06-07 07:49:00,
2013-06-07 03:55:00,54.1,54.1,29.82,West,271,0.0,0.0,100,0.00,,,0.00,Wunderground v.1.15,2013-06-07 07:55:00,
2013-06-07 04:00:00,53.8,53.8,29.82,West,270,0.0,0.0,100,0.00,,,0.00,Wunderground v.1.15,2013-06-07 08:00:00,
2013-06-07 04:06:00,53.6,53.6,29.82,West,270,0.0,0.0,100,0.00,,,0.00,Wunderground v.1.15,2013-06-07 08:06:00,
2013-06-07 04:12:00,53.3,53.3,29.82,West,268,0.0,0.0,100,0.00,,,0.00,Wunderground v.1.15,2013-06-07 08:12:00,
2013-06-07 04:17:00,53.2,53.2,29.82,WSW,254,0.0,0.0,100,0.00,,,0.00,Wunderground v.1.15,2013-06-07 08:17:00,
2013-06-07 04:23:00,52.9,52.9,29.82,WSW,241,0.0,0.0,100,0.00,,,0.00,Wunderground v.1.15,2013-06-07 08:23:00,
2013-06-07 04:29:00,52.6,52.6,29.82,WSW,240,0.0,0.0,100,0.00,,,0.00,Wunderground v.1.15,2013-06-07 08:29:00,
2013-06-07 04:34:00,52.5,52.5,29.82,West,260,0.0,0.0,100,0.00,,,0.00,Wunderground v.1.15,2013-06-07 08:34:00,
2013-06-07 04:39:00,52.3,52.3,29.82,West,260,0.0,0.0,100,0.00,,,0.00,Wunderground v.1.15,2013-06-07 08:39:00,
2013-06-07 04:45:00,52.0,52.0,29.82,WSW,258,0.0,0.0,100,0.00,,,0.00,Wunderground v.1.15,2013-06-07 08:45:00,
2013-06-07 04:50:00,51.7,51.7,29.82,WSW,257,0.0,0.0,100,0.00,,,0.00,Wunderground v.1.15,2013-06-07 08:50:00,
2013-06-07 04:56:00,51.6,51.6,29.82,WSW,254,0.0,0.0,100,0.00,,,0.00,Wunderground v.1.15,2013-06-07 08:56:00,
2013-06-07 05:01:00,51.4,51.4,29.82,WSW,256,0.0,0.0,100,0.00,,,0.00,Wunderground v.1.15,2013-06-07 09:01:00,
2013-06-07 05:07:00,51.3,51.3,29.82,West,260,0.0,0.0,100,0.00,,,0.00,Wunderground v.1.15,2013-06-07 09:07:00,
2013-06-07 05:12:00,51.1,51.1,29.82,West,264,0.0,0.0,100,0.00,,,0.00,Wunderground v.1.15,2013-06-07 09:12:00,
2013-06-07 05:18:00,51.0,51.0,29.82,West,264,0.0,0.0,100,0.00,,,0.00,Wunderground v.1.15,2013-06-07 09:18:00,
2013-06-07 05:24:00,51.0,51.0,29.82,West,265,0.0,0.0,100,0.00,,,0.00,Wunderground v.1.15,2013-06-07 09:24:00,
2013-06-07 05:29:00,50.8,50.8,29.82,West,265,0.0,0.0,100,0.00,,,0.00,Wunderground v.1.15,2013-06-07 09:29:00,
2013-06-07 05:34:00,50.7,50.7,29.83,West,265,0.0,0.0,100,0.00,,,0.00,Wunderground v.1.15,2013-06-07 09:34:00,
2013-06-07 05:39:00,50.5,50.5,29.83,West,267,0.0,0.0,100,0.00,,,0.00,Wunderground v.1.15,2013-06-07 09:39:00,
2013-06-07 05:45:00,50.4,50.4,29.83,West,267,0.0,0.0,100,0.00,,,0.00,Wunderground v.1.15,2013-06-07 09:45:00,
2013-06-07 05:50:00,50.2,50.2,29.83,West,267,0.0,0.0,100,0.00,,,0.00,Wunderground v.1.15,2013-06-07 09:50:00,
2013-06-07 05:56:00,50.1,50.1,29.83,West,267,0.0,0.0,100,0.00,,,0.00,Wunderground v.1.15,2013-06-07 09:56:00,
2013-06-07 06:02:00,50.1,50.1,29.84,West,267,0.0,0.0,100,0.00,,,0.00,Wunderground v.1.15,2013-06-07 10:02:00,
2013-06-07 06:07:00,50.1,50.1,29.84,West,267,0.0,0.0,100,0.00,,,0.00,Wunderground v.1.15,2013-06-07 10:07:00,
2013-06-07 06:12:00,50.1,50.1,29.84,West,267,0.0,0.0,100,0.00,,,0.00,Wunderground v.1.15,2013-06-07 10:12:00,
2013-06-07 06:18:00,50.2,50.2,29.84,West,267,0.0,0.0,100,0.00,,,0.00,Wunderground v.1.15,2013-06-07 10:18:00,
2013-06-07 06:23:00,50.4,50.4,29.84,West,267,0.0,0.0,100,0.00,,,0.00,Wunderground v.1.15,2013-06-07 10:23:00,
2013-06-07 06:29:00,50.4,50.4,29.84,West,267,0.0,0.0,100,0.00,,,0.00,Wunderground v.1.15,2013-06-07 10:29:00,
2013-06-07 06:35:00,50.5,50.5,29.84,West,267,0.0,0.0,100,0.00,,,0.00,Wunderground v.1.15,2013-06-07 10:35:00,
2013-06-07 06:41:00,50.7,50.7,29.84,West,267,0.0,0.0,100,0.00,,,0.00,Wunderground v.1.15,2013-06-07 10:41:00,
2013-06-07 06:46:00,51.0,51.0,29.84,West,267,0.0,0.0,100,0.00,,,0.00,Wunderground v.1.15,2013-06-07 10:46:00,
2013-06-07 06:51:00,51.3,51.3,29.84,West,265,0.0,0.0,100,0.00,,,0.00,Wunderground v.1.15,2013-06-07 10:51:00,
2013-06-07 06:57:00,51.6,51.6,29.84,West,264,0.0,0.0,100,0.00,,,0.00,Wunderground v.1.15,2013-06-07 10:57:00,
2013-06-07 07:02:00,51.7,51.7,29.84,West,260,0.0,0.0,100,0.00,,,0.00,Wunderground v.1.15,2013-06-07 11:02:00,
2013-06-07 07:08:00,52.0,52.0,29.84,SSW,193,0.0,0.0,100,0.00,,,0.00,Wunderground v.1.15,2013-06-07 11:08:00,
2013-06-07 07:14:00,52.3,52.3,29.84,West,271,0.0,0.0,100,0.00,,,0.00,Wunderground v.1.15,2013-06-07 11:14:00,
2013-06-07 07:19:00,52.5,52.5,29.84,West,271,0.0,0.0,100,0.00,,,0.00,Wunderground v.1.15,2013-06-07 11:19:00,
2013-06-07 07:25:00,52.8,52.8,29.84,West,271,0.0,0.0,100,0.00,,,0.00,Wunderground v.1.15,2013-06-07 11:25:00,
2013-06-07 07:30:00,52.8,52.8,29.84,West,271,0.0,0.0,100,0.00,,,0.00,Wunderground v.1.15,2013-06-07 11:30:00,
2013-06-07 07:36:00,52.9,52.9,29.84,West,271,0.0,0.0,100,0.00,,,0.00,Wunderground v.1.15,2013-06-07 11:36:00,
2013-06-07 07:42:00,52.9,52.9,29.84,West,271,0.0,1.0,100,0.00,,,0.00,Wunderground v.1.15,2013-06-07 11:42:00,
2013-06-07 07:48:00,53.1,53.1,29.85,West,271,0.0,2.0,100,0.00,,,0.00,Wunderground v.1.15,2013-06-07 11:48:00,
2013-06-07 07:53:00,53.1,53.1,29.85,West,271,0.0,0.0,100,0.00,,,0.00,Wunderground v.1.15,2013-06-07 11:53:00,
2013-06-07 07:59:00,53.2,53.2,29.85,West,271,0.0,2.0,100,0.00,,,0.00,Wunderground v.1.15,2013-06-07 11:59:00,
2013-06-07 08:04:00,53.6,53.6,29.85,West,274,0.0,2.0,100,0.00,,,0.00,Wunderground v.1.15,2013-06-07 12:04:00,
2013-06-07 08:10:00,54.1,54.1,29.85,West,272,0.0,2.0,100,0.00,,,0.00,Wunderground v.1.15,2013-06-07 12:10:00,
2013-06-07 08:16:00,54.4,54.4,29.85,West,271,0.0,1.0,100,0.00,,,0.00,Wunderground v.1.15,2013-06-07 12:16:00,
2013-06-07 08:21:00,54.7,54.7,29.85,WSW,258,0.0,0.0,100,0.00,,,0.00,Wunderground v.1.15,2013-06-07 12:21:00,
2013-06-07 08:27:00,55.0,55.0,29.85,WSW,248,0.0,0.0,100,0.00,,,0.00,Wunderground v.1.15,2013-06-07 12:27:00,
2013-06-07 08:32:00,55.6,55.6,29.85,WSW,250,0.0,0.0,100,0.00,,,0.00,Wunderground v.1.15,2013-06-07 12:32:00,
2013-06-07 08:38:00,55.9,55.9,29.85,WSW,247,0.0,0.0,100,0.00,,,0.00,Wunderground v.1.15,2013-06-07 12:38:00,
2013-06-07 08:43:00,56.0,56.0,29.85,WSW,251,0.0,1.0,100,0.00,,,0.00,Wunderground v.1.15,2013-06-07 12:43:00,
2013-06-07 08:49:00,56.2,56.2,29.86,WSW,248,0.0,1.0,100,0.00,,,0.00,Wunderground v.1.15,2013-06-07 12:49:00,
2013-06-07 08:54:00,56.2,56.2,29.86,West,278,0.0,0.0,100,0.00,,,0.00,Wunderground v.1.15,2013-06-07 12:54:00,
2013-06-07 09:00:00,56.3,56.3,29.86,West,278,0.0,2.0,100,0.00,,,0.00,Wunderground v.1.15,2013-06-07 13:00:00,
2013-06-07 09:05:00,56.5,56.5,29.86,West,278,0.0,3.0,100,0.00,,,0.00,Wunderground v.1.15,2013-06-07 13:05:00,
2013-06-07 09:12:00,56.5,56.5,29.86,West,278,1.0,1.0,100,0.00,,,0.00,Wunderground v.1.15,2013-06-07 13:12:00,
2013-06-07 09:17:00,56.6,56.6,29.86,West,281,1.0,4.0,100,0.00,,,0.00,Wunderground v.1.15,2013-06-07 13:17:00,
2013-06-07 09:23:00,56.6,56.6,29.86,WNW,294,2.0,5.0,100,0.00,,,0.00,Wunderground v.1.15,2013-06-07 13:23:00,
2013-06-07 09:28:00,56.7,56.7,29.86,NNW,337,2.0,5.0,100,0.00,,,0.00,Wunderground v.1.15,2013-06-07 13:28:00,
2013-06-07 09:33:00,57.2,57.2,29.86,WNW,299,1.0,2.0,100,0.00,,,0.00,Wunderground v.1.15,2013-06-07 13:33:00,
2013-06-07 09:39:00,58.0,58.0,29.86,SW,230,1.0,2.0,100,0.00,,,0.00,Wunderground v.1.15,2013-06-07 13:39:00,
2013-06-07 09:45:00,58.4,58.4,29.86,WNW,296,1.0,3.0,100,0.00,,,0.00,Wunderground v.1.15,2013-06-07 13:45:00,
2013-06-07 09:50:00,58.9,58.9,29.86,NNE,28,1.0,4.0,100,0.00,,,0.00,Wunderground v.1.15,2013-06-07 13:50:00,
2013-06-07 09:57:00,59.5,59.5,29.86,ENE,65,1.0,1.0,100,0.00,,,0.00,Wunderground v.1.15,2013-06-07 13:57:00,
2013-06-07 10:03:00,60.1,60.1,29.86,NNW,336,0.0,3.0,100,0.00,,,0.00,Wunderground v.1.15,2013-06-07 14:03:00,
2013-06-07 10:09:00,60.2,59.1,29.86,NNW,339,1.0,3.0,96,0.00,,,0.00,Wunderground v.1.15,2013-06-07 14:09:00,
2013-06-07 10:15:00,60.7,60.7,29.86,NW,309,1.0,1.0,100,0.00,,,0.00,Wunderground v.1.15,2013-06-07 14:15:00,
2013-06-07 10:20:00,60.9,60.0,29.86,NW,319,0.0,1.0,97,0.00,,,0.00,Wunderground v.1.15,2013-06-07 14:20:00,
2013-06-07 10:26:00,61.2,60.3,29.86,NW,316,0.0,1.0,97,0.00,,,0.00,Wunderground v.1.15,2013-06-07 14:26:00,
2013-06-07 10:31:00,61.3,59.0,29.85,NW,318,0.0,2.0,92,0.00,,,0.00,Wunderground v.1.15,2013-06-07 14:31:00,
2013-06-07 10:36:00,61.3,59.3,29.85,East,80,0.0,2.0,93,0.00,,,0.00,Wunderground v.1.15,2013-06-07 14:36:00,
2013-06-07 10:42:00,61.8,60.4,29.85,East,80,0.0,1.0,95,0.00,,,0.00,Wunderground v.1.15,2013-06-07 14:42:00,
2013-06-07 10:47:00,62.1,60.4,29.85,East,80,0.0,1.0,94,0.00,,,0.00,Wunderground v.1.15,2013-06-07 14:47:00,
2013-06-07 10:53:00,62.3,59.3,29.85,North,352,0.0,3.0,90,0.00,,,0.00,Wunderground v.1.15,2013-06-07 14:53:00,
2013-06-07 10:59:00,62.6,60.2,29.85,ENE,73,1.0,3.0,92,0.00,,,0.00,Wunderground v.1.15,2013-06-07 14:59:00,
2013-06-07 11:04:00,62.7,61.2,29.84,ENE,72,1.0,7.0,95,0.00,,,0.00,Wunderground v.1.15,2013-06-07 15:04:00,
2013-06-07 11:09:00,63.1,59.2,29.84,NW,323,0.0,7.0,87,0.00,,,0.00,Wunderground v.1.15,2013-06-07 15:09:00,
2013-06-07 11:14:00,63.2,60.8,29.84,NW,323,1.0,2.0,92,0.00,,,0.00,Wunderground v.1.15,2013-06-07 15:14:00,
2013-06-07 11:20:00,63.4,59.1,29.84,NNE,28,0.0,2.0,86,0.00,,,0.00,Wunderground v.1.15,2013-06-07 15:20:00,
2013-06-07 11:27:00,63.7,59.4,29.84,West,277,1.0,2.0,86,0.00,,,0.00,Wunderground v.1.15,2013-06-07 15:27:00,
2013-06-07 11:33:00,63.9,60.6,29.84,NNW,347,0.0,4.0,89,0.00,,,0.00,Wunderground v.1.15,2013-06-07 15:33:00,
2013-06-07 11:38:00,64.0,60.1,29.84,NNW,343,1.0,4.0,87,0.00,,,0.00,Wunderground v.1.15,2013-06-07 15:38:00,
2013-06-07 11:43:00,64.3,59.4,29.84,NNW,344,0.0,1.0,84,0.00,,,0.00,Wunderground v.1.15,2013-06-07 15:43:00,
2013-06-07 11:48:00,64.3,59.4,29.84,East,80,0.0,2.0,84,0.00,,,0.00,Wunderground v.1.15,2013-06-07 15:48:00,
2013-06-07 11:53:00,64.3,60.0,29.84,North,356,1.0,1.0,86,0.00,,,0.00,Wunderground v.1.15,2013-06-07 15:53:00,
2013-06-07 11:59:00,64.5,59.6,29.84,NW,313,1.0,1.0,84,0.00,,,0.00,Wunderground v.1.15,2013-06-07 15:59:00,
2013-06-07 12:04:00,64.7,60.1,29.84,NW,313,0.0,3.0,85,0.00,,,0.00,Wunderground v.1.15,2013-06-07 16:04:00,
2013-06-07 12:10:00,64.8,61.5,29.84,West,265,1.0,1.0,89,0.00,,,0.00,Wunderground v.1.15,2013-06-07 16:10:00,
2013-06-07 12:16:00,65.0,59.0,29.84,West,265,1.0,3.0,81,0.00,,,0.00,Wunderground v.1.15,2013-06-07 16:16:00,
2013-06-07 12:22:00,64.7,58.4,29.84,NW,304,1.0,6.0,80,0.00,,,0.00,Wunderground v.1.15,2013-06-07 16:22:00,
2013-06-07 12:27:00,64.8,59.2,29.84,NNW,328,1.0,6.0,82,0.00,,,0.00,Wunderground v.1.15,2013-06-07 16:27:00,
2013-06-07 12:33:00,65.0,58.7,29.84,ENE,62,0.0,2.0,80,0.00,,,0.00,Wunderground v.1.15,2013-06-07 16:33:00,
2013-06-07 12:39:00,65.0,57.2,29.84,NE,35,1.0,5.0,76,0.00,,,0.00,Wunderground v.1.15,2013-06-07 16:39:00,
2013-06-07 12:45:00,64.8,57.8,29.84,WNW,292,1.0,1.0,78,0.00,,,0.00,Wunderground v.1.15,2013-06-07 16:45:00,
2013-06-07 12:50:00,65.3,58.3,29.84,ENE,64,1.0,1.0,78,0.00,,,0.00,Wunderground v.1.15,2013-06-07 16:50:00,
2013-06-07 12:56:00,65.6,59.3,29.84,ESE,117,1.0,3.0,80,0.00,,,0.00,Wunderground v.1.15,2013-06-07 16:56:00,
2013-06-07 13:02:00,65.8,58.4,29.84,ENE,66,1.0,6.0,77,0.00,,,0.00,Wunderground v.1.15,2013-06-07 17:02:00,
2013-06-07 13:08:00,65.8,56.5,29.84,West,270,1.0,6.0,72,0.00,,,0.00,Wunderground v.1.15,2013-06-07 17:08:00,
2013-06-07 13:14:00,65.6,57.5,29.84,SE,145,2.0,4.0,75,0.00,,,0.00,Wunderground v.1.15,2013-06-07 17:14:00,
2013-06-07 13:19:00,66.1,56.4,29.84,NE,42,1.0,4.0,71,0.00,,,0.00,Wunderground v.1.15,2013-06-07 17:19:00,
2013-06-07 13:25:00,66.4,56.7,29.84,NW,319,1.0,5.0,71,0.00,,,0.00,Wunderground v.1.15,2013-06-07 17:25:00,
2013-06-07 13:30:00,66.8,56.3,29.84,NNW,347,1.0,1.0,69,0.00,,,0.00,Wunderground v.1.15,2013-06-07 17:30:00,
2013-06-07 13:36:00,66.8,57.5,29.84,NNW,329,1.0,5.0,72,0.00,,,0.00,Wunderground v.1.15,2013-06-07 17:36:00,
2013-06-07 13:41:00,66.8,55.9,29.84,West,277,1.0,6.0,68,0.00,,,0.00,Wunderground v.1.15,2013-06-07 17:41:00,
2013-06-07 13:47:00,66.8,57.1,29.83,WNW,289,1.0,6.0,71,0.00,,,0.00,Wunderground v.1.15,2013-06-07 17:47:00,
2013-06-07 13:52:00,67.3,56.8,29.83,NNW,328,1.0,6.0,69,0.00,,,0.00,Wunderground v.1.15,2013-06-07 17:52:00,
2013-06-07 13:59:00,64.8,59.9,29.83,West,260,2.0,6.0,84,0.00,,,0.00,Wunderground v.1.15,2013-06-07 17:59:00,
2013-06-07 14:06:00,63.2,58.6,29.83,West,277,3.0,8.0,85,0.00,,,0.00,Wunderground v.1.15,2013-06-07 18:06:00,
2013-06-07 14:12:00,62.7,58.8,29.83,West,270,3.0,3.0,87,0.00,,,0.00,Wunderground v.1.15,2013-06-07 18:12:00,
2013-06-07 14:20:00,62.4,57.5,29.83,West,260,4.0,10.0,84,0.00,,,0.00,Wunderground v.1.15,2013-06-07 18:20:00,
2013-06-07 14:26:00,62.4,57.8,29.83,SW,217,5.0,10.0,85,0.00,,,0.00,Wunderground v.1.15,2013-06-07 18:26:00,
2013-06-07 14:31:00,62.7,58.5,29.83,NW,305,5.0,5.0,86,0.00,,,0.00,Wunderground v.1.15,2013-06-07 18:31:00,
2013-06-07 14:37:00,63.1,57.2,29.83,West,265,4.0,8.0,81,0.00,,,0.00,Wunderground v.1.15,2013-06-07 18:37:00,
2013-06-07 14:43:00,62.6,56.7,29.83,West,264,5.0,12.0,81,0.00,,,0.00,Wunderground v.1.15,2013-06-07 18:43:00,
2013-06-07 14:48:00,62.9,57.0,29.83,West,267,4.0,12.0,81,0.00,,,0.00,Wunderground v.1.15,2013-06-07 18:48:00,
2013-06-07 14:54:00,62.7,54.7,29.83,NW,311,4.0,6.0,75,0.00,,,0.00,Wunderground v.1.15,2013-06-07 18:54:00,
2013-06-07 14:59:00,62.9,55.2,29.83,WNW,282,5.0,11.0,76,0.00,,,0.00,Wunderground v.1.15,2013-06-07 18:59:00,
2013-06-07 15:05:00,63.4,55.3,29.83,West,265,4.0,8.0,75,0.00,,,0.00,Wunderground v.1.15,2013-06-07 19:05:00,
2013-06-07 15:11:00,62.6,54.6,29.83,NW,305,5.0,5.0,75,0.00,,,0.00,Wunderground v.1.15,2013-06-07 19:11:00,
2013-06-07 15:17:00,62.9,54.9,29.83,NNW,329,5.0,6.0,75,0.00,,,0.00,Wunderground v.1.15,2013-06-07 19:17:00,
2013-06-07 15:24:00,62.9,56.3,29.83,West,280,4.0,5.0,79,0.00,,,0.00,Wunderground v.1.15,2013-06-07 19:24:00,
2013-06-07 15:29:00,61.3,54.4,29.83,West,264,6.0,9.0,78,0.00,,,0.00,Wunderground v.1.15,2013-06-07 19:29:00,
2013-06-07 15:34:00,61.5,54.9,29.83,NNW,328,6.0,10.0,79,0.00,,,0.00,Wunderground v.1.15,2013-06-07 19:34:00,
2013-06-07 15:39:00,61.6,55.0,29.83,West,281,5.0,10.0,79,0.00,,,0.00,Wunderground v.1.15,2013-06-07 19:39:00,
2013-06-07 15:45:00,61.5,54.6,29.83,West,272,5.0,7.0,78,0.00,,,0.00,Wunderground v.1.15,2013-06-07 19:45:00,
2013-06-07 15:50:00,61.5,54.9,29.83,NW,311,4.0,6.0,79,0.00,,,0.00,Wunderground v.1.15,2013-06-07 19:50:00,
2013-06-07 15:57:00,61.8,55.2,29.83,NW,311,5.0,8.0,79,0.00,,,0.00,Wunderground v.1.15,2013-06-07 19:57:00,
2013-06-07 16:02:00,62.0,56.1,29.83,West,267,4.0,12.0,81,0.00,,,0.00,Wunderground v.1.15,2013-06-07 20:02:00,
2013-06-07 16:07:00,61.6,53.6,29.83,SW,236,4.0,12.0,75,0.00,,,0.00,Wunderground v.1.15,2013-06-07 20:07:00,
2013-06-07 16:14:00,61.5,52.8,29.83,WNW,285,5.0,7.0,73,0.00,,,0.00,Wunderground v.1.15,2013-06-07 20:14:00,
2013-06-07 16:21:00,62.0,53.2,29.83,WNW,289,5.0,7.0,73,0.00,,,0.00,Wunderground v.1.15,2013-06-07 20:21:00,
2013-06-07 16:26:00,62.4,53.3,29.83,WNW,288,5.0,7.0,72,0.00,,,0.00,Wunderground v.1.15,2013-06-07 20:26:00,
2013-06-07 16:31:00,62.4,52.9,29.83,West,264,4.0,4.0,71,0.00,,,0.00,Wunderground v.1.15,2013-06-07 20:31:00,
2013-06-07 16:39:00,61.8,51.5,29.83,West,265,6.0,11.0,69,0.00,,,0.00,Wunderground v.1.15,2013-06-07 20:39:00,
2013-06-07 16:44:00,62.1,51.8,29.83,WSW,256,6.0,6.0,69,0.00,,,0.00,Wunderground v.1.15,2013-06-07 20:44:00,
2013-06-07 16:49:00,62.1,51.4,29.83,West,271,4.0,11.0,68,0.00,,,0.00,Wunderground v.1.15,2013-06-07 20:49:00,
2013-06-07 16:55:00,62.4,52.1,29.83,WSW,247,4.0,6.0,69,0.00,,,0.00,Wunderground v.1.15,2013-06-07 20:55:00,
2013-06-07 17:00:00,62.6,49.8,29.83,WNW,294,4.0,6.0,63,0.00,,,0.00,Wunderground v.1.15,2013-06-07 21:00:00,
2013-06-07 17:05:00,62.3,49.5,29.83,West,263,5.0,14.0,63,0.00,,,0.00,Wunderground v.1.15,2013-06-07 21:05:00,
2013-06-07 17:11:00,62.4,49.6,29.83,West,280,5.0,5.0,63,0.00,,,0.00,Wunderground v.1.15,2013-06-07 21:11:00,
2013-06-07 17:16:00,61.8,48.6,29.83,West,268,6.0,12.0,62,0.00,,,0.00,Wunderground v.1.15,2013-06-07 21:16:00,
2013-06-07 17:21:00,61.6,49.3,29.83,SW,229,6.0,6.0,64,0.00,,,0.00,Wunderground v.1.15,2013-06-07 21:21:00,
2013-06-07 17:27:00,61.6,49.7,29.83,WSW,258,6.0,7.0,65,0.00,,,0.00,Wunderground v.1.15,2013-06-07 21:27:00,
2013-06-07 17:32:00,61.5,49.6,29.83,NW,318,5.0,7.0,65,0.00,,,0.00,Wunderground v.1.15,2013-06-07 21:32:00,
2013-06-07 17:39:00,61.5,49.2,29.83,West,268,5.0,10.0,64,0.00,,,0.00,Wunderground v.1.15,2013-06-07 21:39:00,
2013-06-07 17:44:00,61.3,49.0,29.83,West,263,5.0,6.0,64,0.00,,,0.00,Wunderground v.1.15,2013-06-07 21:44:00,
2013-06-07 17:49:00,61.6,48.9,29.83,West,261,4.0,6.0,63,0.00,,,0.00,Wunderground v.1.15,2013-06-07 21:49:00,
2013-06-07 17:55:00,61.6,48.9,29.83,NNW,347,4.0,6.0,63,0.00,,,0.00,Wunderground v.1.15,2013-06-07 21:55:00,
2013-06-07 18:01:00,62.0,48.0,29.83,West,270,4.0,7.0,60,0.00,,,0.00,Wunderground v.1.15,2013-06-07 22:01:00,
2013-06-07 18:07:00,62.1,48.5,29.83,East,86,4.0,13.0,61,0.00,,,0.00,Wunderground v.1.15,2013-06-07 22:07:00,
2013-06-07 18:12:00,62.6,48.5,29.83,ENE,65,3.0,7.0,60,0.00,,,0.00,Wunderground v.1.15,2013-06-07 22:12:00,
2013-06-07 18:19:00,62.4,48.3,29.82,NE,48,3.0,7.0,60,0.00,,,0.00,Wunderground v.1.15,2013-06-07 22:19:00,
2013-06-07 18:24:00,62.1,47.6,29.82,West,280,4.0,6.0,59,0.00,,,0.00,Wunderground v.1.15,2013-06-07 22:24:00,
2013-06-07 18:29:00,62.0,47.5,29.82,West,265,4.0,6.0,59,0.00,,,0.00,Wunderground v.1.15,2013-06-07 22:29:00,
2013-06-07 18:34:00,62.3,48.7,29.82,WNW,302,3.0,6.0,61,0.00,,,0.00,Wunderground v.1.15,2013-06-07 22:34:00,
2013-06-07 18:40:00,62.1,48.5,29.82,West,275,3.0,3.0,61,0.00,,,0.00,Wunderground v.1.15,2013-06-07 22:40:00,
2013-06-07 18:46:00,61.3,47.3,29.82,West,281,4.0,8.0,60,0.00,,,0.00,Wunderground v.1.15,2013-06-07 22:46:00,
2013-06-07 18:52:00,61.2,48.5,29.82,NW,312,4.0,5.0,63,0.00,,,0.00,Wunderground v.1.15,2013-06-07 22:52:00,
2013-06-07 18:57:00,61.3,48.6,29.82,WNW,296,3.0,5.0,63,0.00,,,0.00,Wunderground v.1.15,2013-06-07 22:57:00,
2013-06-07 19:04:00,61.2,47.6,29.82,WNW,285,3.0,14.0,61,0.00,,,0.00,Wunderground v.1.15,2013-06-07 23:04:00,
2013-06-07 19:09:00,60.9,48.2,29.82,West,271,3.0,14.0,63,0.00,,,0.00,Wunderground v.1.15,2013-06-07 23:09:00,
2013-06-07 19:14:00,60.7,48.4,29.82,WSW,254,3.0,5.0,64,0.00,,,0.00,Wunderground v.1.15,2013-06-07 23:14:00,
2013-06-07 19:21:00,61.2,48.5,29.82,WSW,257,1.0,2.0,63,0.00,,,0.00,Wunderground v.1.15,2013-06-07 23:21:00,
2013-06-07 19:28:00,60.5,48.3,29.82,WNW,288,2.0,3.0,64,0.00,,,0.00,Wunderground v.1.15,2013-06-07 23:28:00,
2013-06-07 19:35:00,60.2,47.6,29.82,WSW,254,2.0,5.0,63,0.00,,,0.00,Wunderground v.1.15,2013-06-07 23:35:00,
2013-06-07 19:40:00,59.8,46.7,29.82,West,264,3.0,3.0,62,0.00,,,0.00,Wunderground v.1.15,2013-06-07 23:40:00,
2013-06-07 19:46:00,59.9,47.7,29.82,WNW,282,2.0,3.0,64,0.00,,,0.00,Wunderground v.1.15,2013-06-07 23:46:00,
2013-06-07 19:52:00,60.1,49.1,29.82,WNW,282,1.0,1.0,67,0.00,,,0.00,Wunderground v.1.15,2013-06-07 23:52:00,
2013-06-07 19:58:00,59.9,48.9,29.82,WNW,282,1.0,1.0,67,0.00,,,0.00,Wunderground v.1.15,2013-06-07 23:58:00,
2013-06-07 20:04:00,59.6,48.2,29.82,West,281,1.0,11.0,66,0.00,,,0.00,Wunderground v.1.15,2013-06-08 00:04:00,
2013-06-07 20:09:00,59.2,47.8,29.82,West,278,1.0,11.0,66,0.00,,,0.00,Wunderground v.1.15,2013-06-08 00:09:00,
2013-06-07 20:15:00,58.9,47.6,29.83,West,271,1.0,3.0,66,0.00,,,0.00,Wunderground v.1.15,2013-06-08 00:15:00,
2013-06-07 20:20:00,58.7,48.6,29.83,West,270,1.0,3.0,69,0.00,,,0.00,Wunderground v.1.15,2013-06-08 00:20:00,
2013-06-07 20:26:00,58.6,48.1,29.83,West,264,1.0,2.0,68,0.00,,,0.00,Wunderground v.1.15,2013-06-08 00:26:00,
2013-06-07 20:31:00,58.1,47.6,29.83,WNW,282,1.0,2.0,68,0.00,,,0.00,Wunderground v.1.15,2013-06-08 00:31:00,
2013-06-07 20:37:00,57.8,47.7,29.83,WNW,282,1.0,2.0,69,0.00,,,0.00,Wunderground v.1.15,2013-06-08 00:37:00,
2013-06-07 20:42:00,57.3,47.6,29.83,West,281,0.0,1.0,70,0.00,,,0.00,Wunderground v.1.15,2013-06-08 00:42:00,
2013-06-07 20:47:00,57.0,48.1,29.83,West,281,0.0,1.0,72,0.00,,,0.00,Wunderground v.1.15,2013-06-08 00:47:00,
2013-06-07 20:53:00,56.9,48.0,29.83,West,278,0.0,0.0,72,0.00,,,0.00,Wunderground v.1.15,2013-06-08 00:53:00,
2013-06-07 20:59:00,56.5,48.7,29.83,West,281,0.0,0.0,75,0.00,,,0.00,Wunderground v.1.15,2013-06-08 00:59:00,
2013-06-07 21:04:00,56.2,48.0,29.83,West,281,0.0,8.0,74,0.00,,,0.00,Wunderground v.1.15,2013-06-08 01:04:00,
2013-06-07 21:10:00,55.9,48.1,29.83,West,280,0.0,8.0,75,0.00,,,0.00,Wunderground v.1.15,2013-06-08 01:10:00,
2013-06-07 21:15:00,55.6,47.4,29.84,West,278,0.0,0.0,74,0.00,,,0.00,Wunderground v.1.15,2013-06-08 01:15:00,
2013-06-07 21:20:00,55.3,47.5,29.84,West,274,0.0,0.0,75,0.00,,,0.00,Wunderground v.1.15,2013-06-08 01:20:00,
2013-06-07 21:26:00,55.0,48.6,29.84,West,265,0.0,0.0,79,0.00,,,0.00,Wunderground v.1.15,2013-06-08 01:26:00,
2013-06-07 21:32:00,54.5,48.8,29.84,WNW,284,0.0,0.0,81,0.00,,,0.00,Wunderground v.1.15,2013-06-08 01:32:00,
2013-06-07 21:37:00,54.2,48.8,29.84,WNW,284,0.0,0.0,82,0.00,,,0.00,Wunderground v.1.15,2013-06-08 01:37:00,
2013-06-07 21:43:00,54.2,50.1,29.84,WNW,284,0.0,0.0,86,0.00,,,0.00,Wunderground v.1.15,2013-06-08 01:43:00,
2013-06-07 21:49:00,53.8,50.9,29.84,WNW,284,0.0,0.0,90,0.00,,,0.00,Wunderground v.1.15,2013-06-08 01:49:00,
2013-06-07 21:54:00,53.5,51.2,29.84,WNW,284,0.0,0.0,92,0.00,,,0.00,Wunderground v.1.15,2013-06-08 01:54:00,
2013-06-07 22:00:00,53.3,52.2,29.84,WNW,284,0.0,0.0,96,0.00,,,0.00,Wunderground v.1.15,2013-06-08 02:00:00,
2013-06-07 22:06:00,53.1,52.6,29.84,WNW,284,0.0,5.0,98,0.00,,,0.00,Wunderground v.1.15,2013-06-08 02:06:00,
2013-06-07 22:14:00,52.8,52.8,29.84,WNW,284,0.0,0.0,100,0.00,,,0.00,Wunderground v.1.15,2013-06-08 02:14:00,
2013-06-07 22:19:00,52.3,52.3,29.84,WNW,282,0.0,0.0,100,0.00,,,0.00,Wunderground v.1.15,2013-06-08 02:19:00,
2013-06-07 22:24:00,52.2,52.2,29.84,WNW,282,0.0,0.0,100,0.00,,,0.00,Wunderground v.1.15,2013-06-08 02:24:00,
2013-06-07 22:29:00,52.0,52.0,29.84,WNW,282,0.0,0.0,100,0.00,,,0.00,Wunderground v.1.15,2013-06-08 02:29:00,
2013-06-07 22:35:00,51.7,51.7,29.85,WNW,282,0.0,0.0,100,0.00,,,0.00,Wunderground v.1.15,2013-06-08 02:35:00,
2013-06-07 22:41:00,51.6,51.6,29.85,WNW,282,0.0,0.0,100,0.00,,,0.00,Wunderground v.1.15,2013-06-08 02:41:00,
2013-06-07 22:46:00,51.6,51.6,29.85,WNW,282,0.0,0.0,100,0.00,,,0.00,Wunderground v.1.15,2013-06-08 02:46:00,
2013-06-07 22:51:00,51.3,51.3,29.85,WNW,282,0.0,0.0,100,0.00,,,0.00,Wunderground v.1.15,2013-06-08 02:51:00,
2013-06-07 22:58:00,51.0,51.0,29.85,West,281,0.0,0.0,100,0.00,,,0.00,Wunderground v.1.15,2013-06-08 02:58:00,
2013-06-07 23:04:00,50.8,50.8,29.85,West,280,0.0,0.0,100,0.00,,,0.00,Wunderground v.1.15,2013-06-08 03:04:00,
2013-06-07 23:09:00,50.5,50.5,29.85,West,280,0.0,0.0,100,0.00,,,0.00,Wunderground v.1.15,2013-06-08 03:09:00,
2013-06-07 23:15:00,50.4,50.4,29.85,West,278,0.0,0.0,100,0.00,,,0.00,Wunderground v.1.15,2013-06-08 03:15:00,
2013-06-07 23:20:00,50.2,50.2,29.85,West,277,0.0,0.0,100,0.00,,,0.00,Wunderground v.1.15,2013-06-08 03:20:00,
2013-06-07 23:26:00,49.9,49.9,29.85,West,275,0.0,0.0,100,0.00,,,0.00,Wunderground v.1.15,2013-06-08 03:26:00,
2013-06-07 23:32:00,49.6,49.6,29.85,West,274,0.0,0.0,100,0.00,,,0.00,Wunderground v.1.15,2013-06-08 03:32:00,
2013-06-07 23:37:00,49.5,49.5,29.85,West,271,0.0,0.0,100,0.00,,,0.00,Wunderground v.1.15,2013-06-08 03:37:00,
2013-06-07 23:44:00,49.4,49.4,29.85,West,264,0.0,0.0,100,0.00,,,0.00,Wunderground v.1.15,2013-06-08 03:44:00,
2013-06-07 23:51:00,49.5,49.5,29.85,WNW,282,0.0,0.0,100,0.00,,,0.00,Wunderground v.1.15,2013-06-08 03:51:00,
2013-06-07 23:57:00,49.4,49.4,29.85,WNW,282,0.0,0.0,100,0.00,,,0.00,Wunderground v.1.15,2013-06-08 03:57:00,